Year,Month,Day,Hour,Minute,Value (Times are PST for temperature in C)
2013,04,26,00,00,8.30
2013,04,26,00,01,8.30
2013,04,26,00,02,8.30
2013,04,26,00,03,8.30
2013,04,26,00,04,8.40
2013,04,26,00,05,8.40
2013,04,26,00,06,8.40
2013,04,26,00,07,8.40
2013,04,26,00,08,8.40
2013,04,26,00,09,8.40
2013,04,26,00,10,8.50
2013,04,26,00,11,8.50
2013,04,26,00,12,8.50
2013,04,26,00,13,8.50
2013,04,26,00,14,8.40
2013,04,26,00,15,8.40
2013,04,26,00,16,8.40
2013,04,26,00,17,8.40
2013,04,26,00,18,8.40
2013,04,26,00,19,8.40
2013,04,26,00,20,8.40
2013,04,26,00,21,8.40
2013,04,26,00,22,8.40
2013,04,26,00,23,8.40
2013,04,26,00,24,8.40
2013,04,26,00,25,8.40
2013,04,26,00,26,8.40
2013,04,26,00,27,8.40
2013,04,26,00,28,8.40
2013,04,26,00,29,8.40
2013,04,26,00,30,8.40
2013,04,26,00,31,8.40
2013,04,26,00,32,8.40
2013,04,26,00,33,8.40
2013,04,26,00,34,8.40
2013,04,26,00,35,8.50
2013,04,26,00,36,8.50
2013,04,26,00,37,8.50
2013,04,26,00,38,8.50
2013,04,26,00,39,8.50
2013,04,26,00,40,8.50
2013,04,26,00,41,8.60
2013,04,26,00,42,8.60
2013,04,26,00,43,8.60
2013,04,26,00,44,8.60
2013,04,26,00,45,8.50
2013,04,26,00,46,8.50
2013,04,26,00,47,8.50
2013,04,26,00,48,8.50
2013,04,26,00,49,8.50
2013,04,26,00,50,8.50
2013,04,26,00,51,8.40
2013,04,26,00,52,8.40
2013,04,26,00,53,8.40
2013,04,26,00,54,8.40
2013,04,26,00,55,8.40
2013,04,26,00,56,8.40
2013,04,26,00,57,8.30
2013,04,26,00,58,8.30
2013,04,26,00,59,8.30
2013,04,26,01,00,8.30
2013,04,26,01,01,8.30
2013,04,26,01,02,8.30
2013,04,26,01,03,8.30
2013,04,26,01,04,8.30
2013,04,26,01,05,8.30
2013,04,26,01,06,8.30
2013,04,26,01,07,8.30
2013,04,26,01,08,8.30
2013,04,26,01,09,8.30
2013,04,26,01,10,8.30
2013,04,26,01,11,8.30
2013,04,26,01,12,8.30
2013,04,26,01,13,8.30
2013,04,26,01,14,8.30
2013,04,26,01,15,8.40
2013,04,26,01,16,8.30
2013,04,26,01,17,8.30
2013,04,26,01,18,8.30
2013,04,26,01,19,8.30
2013,04,26,01,20,8.30
2013,04,26,01,21,8.30
2013,04,26,01,22,8.30
2013,04,26,01,23,8.40
2013,04,26,01,24,8.40
2013,04,26,01,25,8.40
2013,04,26,01,26,8.40
2013,04,26,01,27,8.40
2013,04,26,01,28,8.40
2013,04,26,01,29,8.40
2013,04,26,01,30,8.40
2013,04,26,01,31,8.40
2013,04,26,01,32,8.30
2013,04,26,01,33,8.30
2013,04,26,01,34,8.30
2013,04,26,01,35,8.30
2013,04,26,01,36,8.30
2013,04,26,01,37,8.30
2013,04,26,01,38,8.30
2013,04,26,01,39,8.30
2013,04,26,01,40,8.30
2013,04,26,01,41,8.30
2013,04,26,01,42,8.30
2013,04,26,01,43,8.30
2013,04,26,01,44,8.30
2013,04,26,01,45,8.30
2013,04,26,01,46,8.30
2013,04,26,01,47,8.30
2013,04,26,01,48,8.30
2013,04,26,01,49,8.30
2013,04,26,01,50,8.30
2013,04,26,01,51,8.30
2013,04,26,01,52,8.30
2013,04,26,01,53,8.20
2013,04,26,01,54,8.20
2013,04,26,01,55,8.30
2013,04,26,01,56,8.30
2013,04,26,01,57,8.30
2013,04,26,01,58,8.30
2013,04,26,01,59,8.40
2013,04,26,02,00,8.40
2013,04,26,02,01,8.40
2013,04,26,02,02,8.40
2013,04,26,02,03,8.40
2013,04,26,02,04,8.40
2013,04,26,02,05,8.40
2013,04,26,02,06,8.30
2013,04,26,02,07,8.30
2013,04,26,02,08,8.30
2013,04,26,02,09,8.30
2013,04,26,02,10,8.30
2013,04,26,02,11,8.30
2013,04,26,02,12,8.30
2013,04,26,02,13,8.30
2013,04,26,02,14,8.30
2013,04,26,02,15,8.30
2013,04,26,02,16,8.30
2013,04,26,02,17,8.30
2013,04,26,02,18,8.30
2013,04,26,02,19,8.30
2013,04,26,02,20,8.30
2013,04,26,02,21,8.30
2013,04,26,02,22,8.30
2013,04,26,02,23,8.30
2013,04,26,02,24,8.30
2013,04,26,02,25,8.30
2013,04,26,02,26,8.30
2013,04,26,02,27,8.20
2013,04,26,02,28,8.20
2013,04,26,02,29,8.20
2013,04,26,02,30,8.20
2013,04,26,02,31,8.10
2013,04,26,02,32,8.10
2013,04,26,02,33,8.10
2013,04,26,02,34,8.10
2013,04,26,02,35,8.10
2013,04,26,02,36,8.10
2013,04,26,02,37,8.10
2013,04,26,02,38,8.10
2013,04,26,02,39,8.10
2013,04,26,02,40,8.00
2013,04,26,02,41,8.00
2013,04,26,02,42,8.00
2013,04,26,02,43,7.90
2013,04,26,02,44,7.90
2013,04,26,02,45,7.90
2013,04,26,02,46,7.90
2013,04,26,02,47,7.80
2013,04,26,02,48,7.80
2013,04,26,02,49,7.80
2013,04,26,02,50,7.80
2013,04,26,02,51,7.70
2013,04,26,02,52,7.70
2013,04,26,02,53,7.70
2013,04,26,02,54,7.70
2013,04,26,02,55,7.70
2013,04,26,02,56,7.70
2013,04,26,02,57,7.70
2013,04,26,02,58,7.70
2013,04,26,02,59,7.70
2013,04,26,03,00,7.60
2013,04,26,03,01,7.60
2013,04,26,03,02,7.60
2013,04,26,03,03,7.60
2013,04,26,03,04,7.50
2013,04,26,03,05,7.50
2013,04,26,03,06,7.40
2013,04,26,03,07,7.40
2013,04,26,03,08,7.40
2013,04,26,03,09,7.40
2013,04,26,03,10,7.40
2013,04,26,03,11,7.30
2013,04,26,03,12,7.30
2013,04,26,03,13,7.30
2013,04,26,03,14,7.30
2013,04,26,03,15,7.20
2013,04,26,03,16,7.20
2013,04,26,03,17,7.20
2013,04,26,03,18,7.20
2013,04,26,03,19,7.20
2013,04,26,03,20,7.20
2013,04,26,03,21,7.10
2013,04,26,03,22,7.10
2013,04,26,03,23,7.10
2013,04,26,03,24,7.10
2013,04,26,03,25,7.10
2013,04,26,03,26,7.00
2013,04,26,03,27,7.00
2013,04,26,03,28,7.00
2013,04,26,03,29,7.00
2013,04,26,03,30,7.00
2013,04,26,03,31,7.00
2013,04,26,03,32,7.10
2013,04,26,03,33,7.10
2013,04,26,03,34,7.10
2013,04,26,03,35,7.10
2013,04,26,03,36,7.10
2013,04,26,03,37,7.20
2013,04,26,03,38,7.20
2013,04,26,03,39,7.20
2013,04,26,03,40,7.20
2013,04,26,03,41,7.20
2013,04,26,03,42,7.20
2013,04,26,03,43,7.20
2013,04,26,03,44,7.20
2013,04,26,03,45,7.20
2013,04,26,03,46,7.20
2013,04,26,03,47,7.20
2013,04,26,03,48,7.20
2013,04,26,03,49,7.20
2013,04,26,03,50,7.20
2013,04,26,03,51,7.20
2013,04,26,03,52,7.30
2013,04,26,03,53,7.30
2013,04,26,03,54,7.30
2013,04,26,03,55,7.30
2013,04,26,03,56,7.20
2013,04,26,03,57,7.20
2013,04,26,03,58,7.20
2013,04,26,03,59,7.20
2013,04,26,04,00,7.20
2013,04,26,04,01,7.20
2013,04,26,04,02,7.20
2013,04,26,04,03,7.20
2013,04,26,04,04,7.20
2013,04,26,04,05,7.20
2013,04,26,04,06,7.20
2013,04,26,04,07,7.20
2013,04,26,04,08,7.20
2013,04,26,04,09,7.20
2013,04,26,04,10,7.20
2013,04,26,04,11,7.20
2013,04,26,04,12,7.20
2013,04,26,04,13,7.20
2013,04,26,04,14,7.20
2013,04,26,04,15,7.10
2013,04,26,04,16,7.10
2013,04,26,04,17,7.10
2013,04,26,04,18,7.10
2013,04,26,04,19,7.10
2013,04,26,04,20,7.10
2013,04,26,04,21,7.10
2013,04,26,04,22,7.10
2013,04,26,04,23,7.10
2013,04,26,04,24,7.10
2013,04,26,04,25,7.10
2013,04,26,04,26,7.00
2013,04,26,04,27,7.00
2013,04,26,04,28,7.00
2013,04,26,04,29,6.90
2013,04,26,04,30,6.90
2013,04,26,04,31,6.90
2013,04,26,04,32,6.90
2013,04,26,04,33,6.90
2013,04,26,04,34,6.90
2013,04,26,04,35,6.80
2013,04,26,04,36,6.80
2013,04,26,04,37,6.80
2013,04,26,04,38,6.80
2013,04,26,04,39,6.80
2013,04,26,04,40,6.80
2013,04,26,04,41,6.80
2013,04,26,04,42,6.80
2013,04,26,04,43,6.80
2013,04,26,04,44,6.80
2013,04,26,04,45,6.80
2013,04,26,04,46,6.70
2013,04,26,04,47,6.70
2013,04,26,04,48,6.70
2013,04,26,04,49,6.70
2013,04,26,04,50,6.70
2013,04,26,04,51,6.70
2013,04,26,04,52,6.70
2013,04,26,04,53,6.70
2013,04,26,04,54,6.70
2013,04,26,04,55,6.60
2013,04,26,04,56,6.60
2013,04,26,04,57,6.60
2013,04,26,04,58,6.60
2013,04,26,04,59,6.60
2013,04,26,05,00,6.60
2013,04,26,05,01,6.60
2013,04,26,05,02,6.60
2013,04,26,05,03,6.60
2013,04,26,05,04,6.60
2013,04,26,05,05,6.60
2013,04,26,05,06,6.60
2013,04,26,05,07,6.60
2013,04,26,05,08,6.60
2013,04,26,05,09,6.60
2013,04,26,05,10,6.60
2013,04,26,05,11,6.60
2013,04,26,05,12,6.60
2013,04,26,05,13,6.60
2013,04,26,05,14,6.60
2013,04,26,05,15,6.60
2013,04,26,05,16,6.60
2013,04,26,05,17,6.60
2013,04,26,05,18,6.70
2013,04,26,05,19,6.70
2013,04,26,05,20,6.70
2013,04,26,05,21,6.70
2013,04,26,05,22,6.70
2013,04,26,05,23,6.70
2013,04,26,05,24,6.70
2013,04,26,05,25,6.70
2013,04,26,05,26,6.70
2013,04,26,05,27,6.70
2013,04,26,05,28,6.60
2013,04,26,05,29,6.60
2013,04,26,05,30,6.60
2013,04,26,05,31,6.60
2013,04,26,05,32,6.60
2013,04,26,05,33,6.60
2013,04,26,05,34,6.60
2013,04,26,05,35,6.50
2013,04,26,05,36,6.60
2013,04,26,05,37,6.50
2013,04,26,05,38,6.50
2013,04,26,05,39,6.50
2013,04,26,05,40,6.50
2013,04,26,05,41,6.50
2013,04,26,05,42,6.50
2013,04,26,05,43,6.50
2013,04,26,05,44,6.50
2013,04,26,05,45,6.50
2013,04,26,05,46,6.40
2013,04,26,05,47,6.40
2013,04,26,05,48,6.40
2013,04,26,05,49,6.40
2013,04,26,05,50,6.40
2013,04,26,05,51,6.40
2013,04,26,05,52,6.40
2013,04,26,05,53,6.40
2013,04,26,05,54,6.40
2013,04,26,05,55,6.40
2013,04,26,05,56,6.40
2013,04,26,05,57,6.40
2013,04,26,05,58,6.40
2013,04,26,05,59,6.40
2013,04,26,06,00,6.40
2013,04,26,06,01,6.40
2013,04,26,06,02,6.40
2013,04,26,06,03,6.40
2013,04,26,06,04,6.40
2013,04,26,06,05,6.40
2013,04,26,06,06,6.40
2013,04,26,06,07,6.40
2013,04,26,06,08,6.40
2013,04,26,06,09,6.40
2013,04,26,06,10,6.40
2013,04,26,06,11,6.40
2013,04,26,06,12,6.40
2013,04,26,06,13,6.40
2013,04,26,06,14,6.40
2013,04,26,06,15,6.40
2013,04,26,06,16,6.40
2013,04,26,06,17,6.40
2013,04,26,06,18,6.40
2013,04,26,06,19,6.40
2013,04,26,06,20,6.40
2013,04,26,06,21,6.40
2013,04,26,06,22,6.40
2013,04,26,06,23,6.40
2013,04,26,06,24,6.40
2013,04,26,06,25,6.40
2013,04,26,06,26,6.40
2013,04,26,06,27,6.40
2013,04,26,06,28,6.40
2013,04,26,06,29,6.50
2013,04,26,06,30,6.50
2013,04,26,06,31,6.50
2013,04,26,06,32,6.50
2013,04,26,06,33,6.50
2013,04,26,06,34,6.50
2013,04,26,06,35,6.60
2013,04,26,06,36,6.60
2013,04,26,06,37,6.60
2013,04,26,06,38,6.60
2013,04,26,06,39,6.50
2013,04,26,06,40,6.50
2013,04,26,06,41,6.50
2013,04,26,06,42,6.50
2013,04,26,06,43,6.60
2013,04,26,06,44,6.60
2013,04,26,06,45,6.60
2013,04,26,06,46,6.60
2013,04,26,06,47,6.60
2013,04,26,06,48,6.60
2013,04,26,06,49,6.60
2013,04,26,06,50,6.70
2013,04,26,06,51,6.70
2013,04,26,06,52,6.70
2013,04,26,06,53,6.80
2013,04,26,06,54,6.80
2013,04,26,06,55,6.80
2013,04,26,06,56,6.90
2013,04,26,06,57,6.90
2013,04,26,06,58,7.00
2013,04,26,06,59,7.10
2013,04,26,07,00,7.10
2013,04,26,07,01,7.20
2013,04,26,07,02,7.20
2013,04,26,07,03,7.30
2013,04,26,07,04,7.40
2013,04,26,07,05,7.50
2013,04,26,07,06,7.50
2013,04,26,07,07,7.60
2013,04,26,07,08,7.70
2013,04,26,07,09,7.80
2013,04,26,07,10,7.80
2013,04,26,07,11,7.90
2013,04,26,07,12,7.90
2013,04,26,07,13,8.00
2013,04,26,07,14,8.00
2013,04,26,07,15,8.10
2013,04,26,07,16,8.10
2013,04,26,07,17,8.20
2013,04,26,07,18,8.20
2013,04,26,07,19,8.20
2013,04,26,07,20,8.30
2013,04,26,07,21,8.30
2013,04,26,07,22,8.40
2013,04,26,07,23,8.40
2013,04,26,07,24,8.50
2013,04,26,07,25,8.60
2013,04,26,07,26,8.60
2013,04,26,07,27,8.70
2013,04,26,07,28,8.70
2013,04,26,07,29,8.80
2013,04,26,07,30,8.80
2013,04,26,07,31,8.90
2013,04,26,07,32,8.90
2013,04,26,07,33,9.00
2013,04,26,07,34,9.10
2013,04,26,07,35,9.10
2013,04,26,07,36,9.10
2013,04,26,07,37,9.20
2013,04,26,07,38,9.20
2013,04,26,07,39,9.30
2013,04,26,07,40,9.30
2013,04,26,07,41,9.40
2013,04,26,07,42,9.40
2013,04,26,07,43,9.50
2013,04,26,07,44,9.50
2013,04,26,07,45,9.60
2013,04,26,07,46,9.60
2013,04,26,07,47,9.60
2013,04,26,07,48,9.70
2013,04,26,07,49,9.70
2013,04,26,07,50,9.70
2013,04,26,07,51,9.70
2013,04,26,07,52,9.70
2013,04,26,07,53,9.80
2013,04,26,07,54,9.80
2013,04,26,07,55,9.80
2013,04,26,07,56,9.80
2013,04,26,07,57,9.80
2013,04,26,07,58,9.80
2013,04,26,07,59,9.70
2013,04,26,08,00,9.70
2013,04,26,08,01,9.70
2013,04,26,08,02,9.70
2013,04,26,08,03,9.70
2013,04,26,08,04,9.70
2013,04,26,08,05,9.70
2013,04,26,08,06,9.80
2013,04,26,08,07,9.80
2013,04,26,08,08,9.80
2013,04,26,08,09,9.90
2013,04,26,08,10,9.90
2013,04,26,08,11,9.90
2013,04,26,08,12,10.00
2013,04,26,08,13,10.00
2013,04,26,08,14,10.10
2013,04,26,08,15,10.10
2013,04,26,08,16,10.10
2013,04,26,08,17,10.20
2013,04,26,08,18,10.20
2013,04,26,08,19,10.20
2013,04,26,08,20,10.20
2013,04,26,08,21,10.30
2013,04,26,08,22,10.30
2013,04,26,08,23,10.30
2013,04,26,08,24,10.30
2013,04,26,08,25,10.40
2013,04,26,08,26,10.40
2013,04,26,08,27,10.40
2013,04,26,08,28,10.40
2013,04,26,08,29,10.40
2013,04,26,08,30,10.30
2013,04,26,08,31,10.40
2013,04,26,08,32,10.40
2013,04,26,08,33,10.40
2013,04,26,08,34,10.30
2013,04,26,08,35,10.30
2013,04,26,08,36,10.30
2013,04,26,08,37,10.30
2013,04,26,08,38,10.30
2013,04,26,08,39,10.30
2013,04,26,08,40,10.30
2013,04,26,08,41,10.30
2013,04,26,08,42,10.30
2013,04,26,08,43,10.30
2013,04,26,08,44,10.30
2013,04,26,08,45,10.40
2013,04,26,08,46,10.40
2013,04,26,08,47,10.40
2013,04,26,08,48,10.40
2013,04,26,08,49,10.40
2013,04,26,08,50,10.50
2013,04,26,08,51,10.50
2013,04,26,08,52,10.50
2013,04,26,08,53,10.60
2013,04,26,08,54,10.60
2013,04,26,08,55,10.60
2013,04,26,08,56,10.60
2013,04,26,08,57,10.60
2013,04,26,08,58,10.70
2013,04,26,08,59,10.70
2013,04,26,09,00,10.70
2013,04,26,09,01,10.70
2013,04,26,09,02,10.80
2013,04,26,09,03,10.80
2013,04,26,09,04,10.80
2013,04,26,09,05,10.90
2013,04,26,09,06,10.90
2013,04,26,09,07,11.00
2013,04,26,09,08,11.00
2013,04,26,09,09,11.10
2013,04,26,09,10,11.10
2013,04,26,09,11,11.10
2013,04,26,09,12,11.10
2013,04,26,09,13,11.10
2013,04,26,09,14,11.20
2013,04,26,09,15,11.20
2013,04,26,09,16,11.20
2013,04,26,09,17,11.10
2013,04,26,09,18,11.20
2013,04,26,09,19,11.20
2013,04,26,09,20,11.20
2013,04,26,09,21,11.20
2013,04,26,09,22,11.10
2013,04,26,09,23,11.10
2013,04,26,09,24,11.10
2013,04,26,09,25,11.20
2013,04,26,09,26,11.20
2013,04,26,09,27,11.20
2013,04,26,09,28,11.20
2013,04,26,09,29,11.20
2013,04,26,09,30,11.30
2013,04,26,09,31,11.30
2013,04,26,09,32,11.30
2013,04,26,09,33,11.40
2013,04,26,09,34,11.40
2013,04,26,09,35,11.40
2013,04,26,09,36,11.40
2013,04,26,09,37,11.40
2013,04,26,09,38,11.40
2013,04,26,09,39,11.40
2013,04,26,09,40,11.40
2013,04,26,09,41,11.40
2013,04,26,09,42,11.40
2013,04,26,09,43,11.40
2013,04,26,09,44,11.40
2013,04,26,09,45,11.50
2013,04,26,09,46,11.40
2013,04,26,09,47,11.40
2013,04,26,09,48,11.30
2013,04,26,09,49,11.20
2013,04,26,09,50,11.10
2013,04,26,09,51,11.00
2013,04,26,09,52,11.00
2013,04,26,09,53,10.90
2013,04,26,09,54,10.90
2013,04,26,09,55,10.80
2013,04,26,09,56,10.80
2013,04,26,09,57,10.80
2013,04,26,09,58,10.80
2013,04,26,09,59,10.80
2013,04,26,10,00,10.80
2013,04,26,10,01,10.80
2013,04,26,10,02,10.90
2013,04,26,10,03,10.90
2013,04,26,10,04,10.90
2013,04,26,10,05,10.90
2013,04,26,10,06,11.00
2013,04,26,10,07,11.00
2013,04,26,10,08,11.10
2013,04,26,10,09,11.10
2013,04,26,10,10,11.10
2013,04,26,10,11,11.10
2013,04,26,10,12,11.20
2013,04,26,10,13,11.20
2013,04,26,10,14,11.20
2013,04,26,10,15,11.20
2013,04,26,10,16,11.20
2013,04,26,10,17,11.30
2013,04,26,10,18,11.30
2013,04,26,10,19,11.30
2013,04,26,10,20,11.30
2013,04,26,10,21,11.30
2013,04,26,10,22,11.30
2013,04,26,10,23,11.30
2013,04,26,10,24,11.30
2013,04,26,10,25,11.40
2013,04,26,10,26,11.30
2013,04,26,10,27,11.30
2013,04,26,10,28,11.30
2013,04,26,10,29,11.40
2013,04,26,10,30,11.40
2013,04,26,10,31,11.40
2013,04,26,10,32,11.40
2013,04,26,10,33,11.50
2013,04,26,10,34,11.50
2013,04,26,10,35,11.50
2013,04,26,10,36,11.50
2013,04,26,10,37,11.50
2013,04,26,10,38,11.60
2013,04,26,10,39,11.60
2013,04,26,10,40,11.60
2013,04,26,10,41,11.50
2013,04,26,10,42,11.50
2013,04,26,10,43,11.50
2013,04,26,10,44,11.50
2013,04,26,10,45,11.60
2013,04,26,10,46,11.60
2013,04,26,10,47,11.60
2013,04,26,10,48,11.70
2013,04,26,10,49,11.70
2013,04,26,10,50,11.70
2013,04,26,10,51,11.80
2013,04,26,10,52,11.80
2013,04,26,10,53,11.80
2013,04,26,10,54,11.90
2013,04,26,10,55,11.90
2013,04,26,10,56,11.90
2013,04,26,10,57,11.90
2013,04,26,10,58,11.90
2013,04,26,10,59,11.90
2013,04,26,11,00,11.90
2013,04,26,11,01,11.80
2013,04,26,11,02,11.80
2013,04,26,11,03,11.80
2013,04,26,11,04,11.80
2013,04,26,11,05,11.80
2013,04,26,11,06,11.80
2013,04,26,11,07,11.70
2013,04,26,11,08,11.70
2013,04,26,11,09,11.70
2013,04,26,11,10,11.70
2013,04,26,11,11,11.80
2013,04,26,11,12,11.80
2013,04,26,11,13,11.80
2013,04,26,11,14,11.80
2013,04,26,11,15,11.80
2013,04,26,11,16,11.80
2013,04,26,11,17,11.90
2013,04,26,11,18,11.90
2013,04,26,11,19,12.00
2013,04,26,11,20,12.00
2013,04,26,11,21,12.10
2013,04,26,11,22,12.20
2013,04,26,11,23,12.20
2013,04,26,11,24,12.30
2013,04,26,11,25,12.30
2013,04,26,11,26,12.40
2013,04,26,11,27,12.40
2013,04,26,11,28,12.50
2013,04,26,11,29,12.60
2013,04,26,11,30,12.60
2013,04,26,11,31,12.60
2013,04,26,11,32,12.60
2013,04,26,11,33,12.60
2013,04,26,11,34,12.50
2013,04,26,11,35,12.50
2013,04,26,11,36,12.50
2013,04,26,11,37,12.50
2013,04,26,11,38,12.60
2013,04,26,11,39,12.70
2013,04,26,11,40,12.70
2013,04,26,11,41,12.70
2013,04,26,11,42,12.70
2013,04,26,11,43,12.70
2013,04,26,11,44,12.80
2013,04,26,11,45,12.80
2013,04,26,11,46,12.70
2013,04,26,11,47,12.70
2013,04,26,11,48,12.70
2013,04,26,11,49,12.60
2013,04,26,11,50,12.50
2013,04,26,11,51,12.50
2013,04,26,11,52,12.50
2013,04,26,11,53,12.50
2013,04,26,11,54,12.60
2013,04,26,11,55,12.60
2013,04,26,11,56,12.60
2013,04,26,11,57,12.60
2013,04,26,11,58,12.60
2013,04,26,11,59,12.60
2013,04,26,12,00,12.60
2013,04,26,12,01,12.50
2013,04,26,12,02,12.50
2013,04,26,12,03,12.60
2013,04,26,12,04,12.60
2013,04,26,12,05,12.70
2013,04,26,12,06,12.70
2013,04,26,12,07,12.70
2013,04,26,12,08,12.70
2013,04,26,12,09,12.80
2013,04,26,12,10,12.80
2013,04,26,12,11,12.80
2013,04,26,12,12,12.80
2013,04,26,12,13,12.80
2013,04,26,12,14,12.90
2013,04,26,12,15,12.90
2013,04,26,12,16,12.90
2013,04,26,12,17,12.90
2013,04,26,12,18,13.00
2013,04,26,12,19,13.00
2013,04,26,12,20,13.10
2013,04,26,12,21,13.20
2013,04,26,12,22,13.20
2013,04,26,12,23,13.20
2013,04,26,12,24,13.20
2013,04,26,12,25,13.20
2013,04,26,12,26,13.20
2013,04,26,12,27,13.30
2013,04,26,12,28,13.40
2013,04,26,12,29,13.50
2013,04,26,12,30,13.60
2013,04,26,12,31,13.60
2013,04,26,12,32,13.60
2013,04,26,12,33,13.50
2013,04,26,12,34,13.40
2013,04,26,12,35,13.40
2013,04,26,12,36,13.40
2013,04,26,12,37,13.50
2013,04,26,12,38,13.50
2013,04,26,12,39,13.40
2013,04,26,12,40,13.40
2013,04,26,12,41,13.50
2013,04,26,12,42,13.50
2013,04,26,12,43,13.60
2013,04,26,12,44,13.60
2013,04,26,12,45,13.70
2013,04,26,12,46,13.70
2013,04,26,12,47,13.70
2013,04,26,12,48,13.70
2013,04,26,12,49,13.70
2013,04,26,12,50,13.80
2013,04,26,12,51,13.90
2013,04,26,12,52,13.90
2013,04,26,12,53,14.00
2013,04,26,12,54,14.10
2013,04,26,12,55,14.20
2013,04,26,12,56,14.30
2013,04,26,12,57,14.40
2013,04,26,12,58,14.40
2013,04,26,12,59,14.50
2013,04,26,13,00,14.50
2013,04,26,13,01,14.50
2013,04,26,13,02,14.40
2013,04,26,13,03,14.30
2013,04,26,13,04,14.30
2013,04,26,13,05,14.30
2013,04,26,13,06,14.40
2013,04,26,13,07,14.40
2013,04,26,13,08,14.40
2013,04,26,13,09,14.40
2013,04,26,13,10,14.40
2013,04,26,13,11,14.30
2013,04,26,13,12,14.40
2013,04,26,13,13,14.40
2013,04,26,13,14,14.30
2013,04,26,13,15,14.30
2013,04,26,13,16,14.30
2013,04,26,13,17,14.30
2013,04,26,13,18,14.30
2013,04,26,13,19,14.30
2013,04,26,13,20,14.30
2013,04,26,13,21,14.40
2013,04,26,13,22,14.50
2013,04,26,13,23,14.50
2013,04,26,13,24,14.50
2013,04,26,13,25,14.60
2013,04,26,13,26,14.60
2013,04,26,13,27,14.60
2013,04,26,13,28,14.50
2013,04,26,13,29,14.40
2013,04,26,13,30,14.30
2013,04,26,13,31,14.20
2013,04,26,13,32,14.20
2013,04,26,13,33,14.20
2013,04,26,13,34,14.30
2013,04,26,13,35,14.30
2013,04,26,13,36,14.30
2013,04,26,13,37,14.30
2013,04,26,13,38,14.40
2013,04,26,13,39,14.40
2013,04,26,13,40,14.40
2013,04,26,13,41,14.40
2013,04,26,13,42,14.40
2013,04,26,13,43,14.30
2013,04,26,13,44,14.20
2013,04,26,13,45,14.20
2013,04,26,13,46,14.10
2013,04,26,13,47,14.10
2013,04,26,13,48,14.10
2013,04,26,13,49,14.20
2013,04,26,13,50,14.20
2013,04,26,13,51,14.20
2013,04,26,13,52,14.10
2013,04,26,13,53,14.10
2013,04,26,13,54,14.10
2013,04,26,13,55,14.10
2013,04,26,13,56,14.10
2013,04,26,13,57,14.10
2013,04,26,13,58,14.00
2013,04,26,13,59,14.00
2013,04,26,14,00,14.00
2013,04,26,14,01,14.00
2013,04,26,14,02,14.00
2013,04,26,14,03,14.00
2013,04,26,14,04,14.00
2013,04,26,14,05,14.00
2013,04,26,14,06,14.00
2013,04,26,14,07,14.10
2013,04,26,14,08,14.10
2013,04,26,14,09,14.20
2013,04,26,14,10,14.30
2013,04,26,14,11,14.40
2013,04,26,14,12,14.40
2013,04,26,14,13,14.50
2013,04,26,14,14,14.60
2013,04,26,14,15,14.70
2013,04,26,14,16,14.90
2013,04,26,14,17,15.00
2013,04,26,14,18,15.10
2013,04,26,14,19,15.20
2013,04,26,14,20,15.30
2013,04,26,14,21,15.50
2013,04,26,14,22,15.70
2013,04,26,14,23,15.80
2013,04,26,14,24,15.80
2013,04,26,14,25,15.90
2013,04,26,14,26,15.90
2013,04,26,14,27,16.00
2013,04,26,14,28,16.10
2013,04,26,14,29,16.20
2013,04,26,14,30,16.20
2013,04,26,14,31,16.30
2013,04,26,14,32,16.30
2013,04,26,14,33,16.20
2013,04,26,14,34,16.30
2013,04,26,14,35,16.30
2013,04,26,14,36,16.30
2013,04,26,14,37,16.30
2013,04,26,14,38,16.30
2013,04,26,14,39,16.40
2013,04,26,14,40,16.50
2013,04,26,14,41,16.50
2013,04,26,14,42,16.50
2013,04,26,14,43,16.40
2013,04,26,14,44,16.20
2013,04,26,14,45,16.10
2013,04,26,14,46,15.90
2013,04,26,14,47,15.80
2013,04,26,14,48,15.70
2013,04,26,14,49,15.60
2013,04,26,14,50,15.50
2013,04,26,14,51,15.40
2013,04,26,14,52,15.20
2013,04,26,14,53,15.00
2013,04,26,14,54,15.00
2013,04,26,14,55,15.00
2013,04,26,14,56,15.00
2013,04,26,14,57,15.00
2013,04,26,14,58,15.00
2013,04,26,14,59,15.00
2013,04,26,15,00,15.00
2013,04,26,15,01,15.00
2013,04,26,15,02,15.20
2013,04,26,15,03,15.30
2013,04,26,15,04,15.30
2013,04,26,15,05,15.20
2013,04,26,15,06,15.30
2013,04,26,15,07,15.30
2013,04,26,15,08,15.30
2013,04,26,15,09,15.40
2013,04,26,15,10,15.40
2013,04,26,15,11,15.40
2013,04,26,15,12,15.40
2013,04,26,15,13,15.50
2013,04,26,15,14,15.50
2013,04,26,15,15,15.60
2013,04,26,15,16,15.70
2013,04,26,15,17,15.80
2013,04,26,15,18,15.80
2013,04,26,15,19,15.80
2013,04,26,15,20,15.80
2013,04,26,15,21,15.80
2013,04,26,15,22,15.70
2013,04,26,15,23,15.70
2013,04,26,15,24,15.60
2013,04,26,15,25,15.60
2013,04,26,15,26,15.50
2013,04,26,15,27,15.50
2013,04,26,15,28,15.60
2013,04,26,15,29,15.70
2013,04,26,15,30,15.80
2013,04,26,15,31,15.90
2013,04,26,15,32,16.00
2013,04,26,15,33,16.00
2013,04,26,15,34,16.00
2013,04,26,15,35,16.00
2013,04,26,15,36,15.80
2013,04,26,15,37,15.70
2013,04,26,15,38,15.70
2013,04,26,15,39,15.60
2013,04,26,15,40,15.50
2013,04,26,15,41,15.40
2013,04,26,15,42,15.30
2013,04,26,15,43,15.20
2013,04,26,15,44,15.00
2013,04,26,15,45,15.00
2013,04,26,15,46,15.00
2013,04,26,15,47,15.00
2013,04,26,15,48,15.00
2013,04,26,15,49,15.00
2013,04,26,15,50,15.00
2013,04,26,15,51,15.00
2013,04,26,15,52,15.00
2013,04,26,15,53,15.00
2013,04,26,15,54,15.00
2013,04,26,15,55,15.00
2013,04,26,15,56,15.00
2013,04,26,15,57,15.00
2013,04,26,15,58,15.10
2013,04,26,15,59,15.20
2013,04,26,16,00,15.30
2013,04,26,16,01,15.30
2013,04,26,16,02,15.30
2013,04,26,16,03,15.30
2013,04,26,16,04,15.30
2013,04,26,16,05,15.50
2013,04,26,16,06,15.50
2013,04,26,16,07,15.50
2013,04,26,16,08,15.50
2013,04,26,16,09,15.50
2013,04,26,16,10,15.60
2013,04,26,16,11,15.60
2013,04,26,16,12,15.60
2013,04,26,16,13,15.70
2013,04,26,16,14,15.70
2013,04,26,16,15,15.70
2013,04,26,16,16,15.60
2013,04,26,16,17,15.70
2013,04,26,16,18,15.70
2013,04,26,16,19,15.80
2013,04,26,16,20,15.90
2013,04,26,16,21,16.00
2013,04,26,16,22,16.10
2013,04,26,16,23,16.10
2013,04,26,16,24,16.10
2013,04,26,16,25,16.20
2013,04,26,16,26,16.20
2013,04,26,16,27,16.20
2013,04,26,16,28,16.20
2013,04,26,16,29,16.20
2013,04,26,16,30,16.30
2013,04,26,16,31,16.30
2013,04,26,16,32,16.30
2013,04,26,16,33,16.30
2013,04,26,16,34,16.30
2013,04,26,16,35,16.30
2013,04,26,16,36,16.20
2013,04,26,16,37,16.10
2013,04,26,16,38,16.00
2013,04,26,16,39,15.80
2013,04,26,16,40,15.70
2013,04,26,16,41,15.50
2013,04,26,16,42,15.40
2013,04,26,16,43,15.30
2013,04,26,16,44,15.10
2013,04,26,16,45,15.00
2013,04,26,16,46,14.90
2013,04,26,16,47,14.80
2013,04,26,16,48,14.70
2013,04,26,16,49,14.60
2013,04,26,16,50,14.50
2013,04,26,16,51,14.40
2013,04,26,16,52,14.30
2013,04,26,16,53,14.30
2013,04,26,16,54,14.20
2013,04,26,16,55,14.10
2013,04,26,16,56,14.00
2013,04,26,16,57,13.80
2013,04,26,16,58,13.70
2013,04,26,16,59,13.70
2013,04,26,17,00,13.60
2013,04,26,17,01,13.60
2013,04,26,17,02,13.60
2013,04,26,17,03,13.60
2013,04,26,17,04,13.50
2013,04,26,17,05,13.40
2013,04,26,17,06,13.30
2013,04,26,17,07,13.30
2013,04,26,17,08,13.30
2013,04,26,17,09,13.40
2013,04,26,17,10,13.50
2013,04,26,17,11,13.50
2013,04,26,17,12,13.40
2013,04,26,17,13,13.40
2013,04,26,17,14,13.30
2013,04,26,17,15,13.30
2013,04,26,17,16,13.40
2013,04,26,17,17,13.50
2013,04,26,17,18,13.50
2013,04,26,17,19,13.60
2013,04,26,17,20,13.60
2013,04,26,17,21,13.60
2013,04,26,17,22,13.60
2013,04,26,17,23,13.60
2013,04,26,17,24,13.60
2013,04,26,17,25,13.70
2013,04,26,17,26,13.70
2013,04,26,17,27,13.80
2013,04,26,17,28,13.80
2013,04,26,17,29,13.90
2013,04,26,17,30,13.90
2013,04,26,17,31,14.00
2013,04,26,17,32,14.00
2013,04,26,17,33,14.00
2013,04,26,17,34,14.00
2013,04,26,17,35,14.00
2013,04,26,17,36,14.00
2013,04,26,17,37,14.00
2013,04,26,17,38,14.00
2013,04,26,17,39,14.00
2013,04,26,17,40,13.90